User: anonymous   Login
Location: Unspecified
(0.0000°N, 0.0000°E)
Time: 11:51:48
(UTC+02:00)
Language:

ASC 2 Rocket - Orbit

View from above orbital plane
View from above orbital plane
View from above satellite
View from above satellite

Ground track
Ground track

The orbit data is extracted from the following two-line orbital elements,

1 21228U 91028B   16148.86618829  .00000239  00000-0  27567-4 0  9998
2 21228  23.9996  28.5270 1143383 216.4329 257.5208 12.53262720149406
Epoch (UTC): 27 May 2016 20:47:18
Eccentricity: 0.1143383
inclination: 23.9996°
perigee height: 556 km
apogee height: 2346 km
right ascension of ascending node: 28.5270°
argument of perigee: 216.4329°
revolutions per day: 12.53262720
mean anomaly at epoch: 257.5208°
orbit number at epoch: 14940

The dashed part of the orbit path shows where the satellite is in the earth's shadow,  

DLR